Location: Le Rocchette
(44.3500°N, 7.8333°E)
Time: 22:03:32
(UTC+00:00)

Lacrosse 5 - Pass Details

Date: 17 November 2019
Orbit: 715 x 724 km, 57.0° (Epoch: 30 November)

Event Time Altitude Azimuth Distance (km) Brightness Sun altitude
Exits shadow 03:03:27 22° 52° (NE) 1,540 4.0 -36.2°
Drops below altitude 10° 03:05:14 10° 50° (NE) 2,209 5.0 -35.8°
Sets 03:07:37 0° 49° (NE) 3,131 5.9 -35.4°
